Find Starlink 32165

NORAD ID: 60599 Int'l Des: 2024-150 Owner: SPXS Country: US Constellation: starlink operational
LEOCIRCULAR

当前视图

正在加载3D地球...

About Starlink 32165

Starlink 32165 (NORAD 60599) is a starlink constellation satellite (v2 mini) launched Aug 20, 2024 by SPXS of US. It operates in LEO, CIRCULAR orbit with a mass of 730.00 kg.

即将过境

Passes for default location (London). Set your location on the main map for personalized predictions.

高度历史

Loading altitude history...

两行轨道根数

1 60599U 24150S 26264.98254530 .00000399 00000-0 22963-4 0 9994
2 60599 53.1607 114.6334 0001347 96.9752 263.1404 15.34387138118102
Epoch: Sep 21, 2026 • Age: 21 hours

当前状态

高度 474.0 km
远地点 / 近地点 N/A
速度 7.63 km/s
星下点 -34.16°S, 5.98°E
发射日期 Aug 20, 2024
运行时间 2 years
类型 internet

技术详情

分类 Payload
质量 730.00 kg
干质量 700.00 kg
长度 0.30 m
跨度 29.00 m
形状 ? Box + pan
制造商 SPXS
平台类型 Starlink V2M
阶段状态 In Orbit
所有者/国家 SPXS/US

Most Searched